Regional Weather Roundup
Issued by NWS

Home | Current Version | Previous Version | Graphics & Text | Print | Product List | Glossary On
Versions: 1 2 3 4 5 6 7 8 9 10 11 12 13 14 15 16 17 18 19 20 21 22 23 24 25 26 27 28 29 30 31 32 33 34 35 36 37 38 39 40 41 42 43 44 45 46 47 48 49 50
000
ASUS43 KMKX 241011
RWRWI

WISCONSIN REGIONAL WEATHER ROUNDUP
NATIONAL WEATHER SERVICE MILWAUKEE/SULLIVAN WI
500 AM CDT SUN JUN 24 2018

NOTE: "FAIR" INDICATES FEW OR NO CLOUDS BELOW 12,000 FEET WITH NO
SIGNIFICANT WEATHER AND/OR OBSTRUCTIONS TO VISIBILITY.

WIZ001-002-006>008-014>016-023>028-241100-
NORTHWEST WISCONSIN

CITY           SKY/WX    TMP DP  RH WIND       PRES   REMARKS
SUPERIOR ARPT  CLOUDY    46  45  94 NE14G21   29.97R
ASHLAND        CLOUDY    47  46  97 NE12      29.97R
HAYWARD        FAIR      52  50  93 N8        29.92R
SIREN          FAIR      55  51  87 NE7       29.90R
CUMBERLAND     MOCLDY    59  57  94 N3        29.88R
RICE LAKE      FAIR      59  59  98 N3        29.89R
CHETEK         FAIR      59  59 100 CALM      29.87S
LADYSMITH      FAIR      57  56  94 MISG      29.90R
EAU CLAIRE     FAIR      60  60 100 CALM      29.85R FOG
MENOMONIE      FAIR      60  60  97 CALM      29.86S
NEW RICHMOND   FAIR      59  59  99 CALM      29.86S FOG
OSCEOLA        FAIR      60  58  94 CALM      29.88S
$$

WIZ003>005-009-010-017-018-241100-
NORTH CENTRAL WISCONSIN

CITY           SKY/WX    TMP DP  RH WIND       PRES   REMARKS
MANITOWISH WTR FAIR      53  48  83 NE5       29.92R
ARBOR VITAE    FAIR      57  49  76 CALM      29.91R
WOODRUFF       FAIR      57  49  76 CALM      29.91R
RHINELANDER    FAIR      58  55  90 N5        29.90R
EAGLE RIVER    FAIR      52  43  70 NE5       29.91R
LAND O LAKES   FAIR      52  45  76 CALM      29.94R
PHILLIPS       FAIR      55  52  92 NE6       29.89R
TOMAHAWK       FAIR      49  48  98 CALM      29.89R
MEDFORD        FAIR      54  53  97 CALM      29.87R FOG
MERRILL        FAIR      53  53 100 CALM      29.88R
$$

WIZ029-030-035-036-043>047-241100-
CENTRAL WISCONSIN

CITY           SKY/WX    TMP DP  RH WIND       PRES   REMARKS
WAUSAU         FAIR      59  56  89 E5        29.85R
MOSINEE        FAIR      55  54  94 NE3       29.88R
MARSHFIELD     FAIR      60  59  96 CALM      29.86R
STEVENS POINT  FAIR      54  54 100 NE3       29.87R
WAUPACA        FAIR      61  60  97 CALM      29.87R
WAUTOMA        FAIR      62  60  93 CALM      29.86R
WISC RAPIDS    FAIR      59  58  96 CALM      29.87S
CAMP DOUGLAS   FAIR      57  57 100 CALM      29.85S
$$

WIZ011>013-019>022-031-037>040-048>050-241100-
NORTHEAST WISCONSIN

CITY           SKY/WX    TMP DP  RH WIND       PRES   REMARKS
ANTIGO         FAIR      58  56  95 CALM      29.90R
SHAWANO        FAIR      63  59  89 E6        29.87R
OCONTO         FAIR      59  58  96 CALM      29.88R
STURGEON BAY   FAIR      61  60  97 NE5       29.89R
GREEN BAY      FAIR      60  58  92 CALM      29.87R
MANITOWOC      FAIR      61  60  97 N6        29.88R
APPLETON       FAIR      63  57  82 NE3       29.86R
CLINTONVILLE   NOT AVBL
OSHKOSH        FAIR      59  57  93 CALM      29.86R
$$

WIZ032>034-041-042-053>061-241100-
SOUTHWEST WISCONSIN

CITY           SKY/WX    TMP DP  RH WIND       PRES   REMARKS
LA CROSSE      FAIR      66  62  87 SE5       29.85R
SPARTA         FAIR      51  51 100 CALM      29.87S
VIROQUA        FAIR      63  63  97 CALM      29.88R
BOSCOBEL       FOG       62  61  96 CALM      29.87R VSB<1/4
PRAIRIE DU CHI FOG       61  60  96 CALM      29.86S VSB 1/2
PLATTEVILLE    FAIR      61  61 100 CALM      29.88S
$$

WIZ056-057-062-063-064-067-068-241100-
SOUTH CENTRAL WISCONSIN

CITY           SKY/WX    TMP DP  RH WIND       PRES   REMARKS
REEDSBURG      FAIR      59  59 100 CALM      29.86S
BARABOO/DELLS  FAIR      59  57  92 CALM      29.87S
LONE ROCK      MOCLDY    57  57 100 CALM      29.87R FOG
MINERAL POINT    N/A     61  61 100 CALM      29.88R FOG
MADISON          N/A    N/A N/A N/A MISG      29.86R
MIDDLETON      FAIR      62  59  87 CALM      29.87S
WATERTOWN      FAIR      60  59  96 CALM      29.86S
MONROE         FAIR      64  57  78 NW7       29.87R
JANESVILLE     FAIR      61  61 100 CALM      29.87R
$$

WIZ051-052-058>065-066-070>072-241100-
SOUTHEAST WISCONSIN

CITY           SKY/WX    TMP DP  RH WIND       PRES   REMARKS
MILWAUKEE      MOCLDY    64  59  83 NE9       29.86R
WAUKESHA       FAIR      59  54  82 W3        29.87R
MILWAUKEE/TIMM FAIR      63  54  72 NE3       29.87R
RACINE         FAIR      63  57  81 CALM      29.87R
BURLINGTON     FAIR      60  55  84 SW3       29.86S
KENOSHA        FAIR      61  55  81 W3        29.85R
FOND DU LAC    FAIR      59  56  89 CALM      29.86R
SHEBOYGAN      FAIR      59  58  96 NE5       29.87R
WEST BEND      FAIR      59  59 100 CALM      29.87R
JUNEAU         FAIR      59  56  88 CALM      29.87R
$$

LSZ147-162-241100-
LAKE SUPERIOR

STATION/POSITION TIME  TEMP    WIND        PRES    WAVE
                       AIR SEA DIR/SP/G            HT/PER
                 (UTC) (F)     (DEG/KT/KT) (MB)    (FT/S)
W MID LAKE BUOY  0950   43 38   40/ 17/ 21 1015.2R   4/ 5
DEVILS ISLAND    1000   46      60/ 22/ 25 1015.6R
SAXON HARBOR     0930   50      40/ 16/ 18 1013.5R
$$

LMZ867-665-643>646-241100-
LAKE MICHIGAN

STATION/POSITION TIME  TEMP    WIND        PRES    WAVE
                       AIR SEA DIR/SP/G            HT/PER
                 (UTC) (F)     (DEG/KT/KT) (MB)    (FT/S)
S GREEN BAY BUOY 1000   65 69   30/ 10/ 14 1011.6
N MID LAKE BUOY  0950   57 54   20/  6/  8 1011.2R   0
NORTHPORT PIER   0940   61     330/  2/  2 1011.5R
KEWAUNEE LAKESHO 0948           20/  3/  5 1011.1R
SHEBOYGAN LAKESH 1000   61      10/ 12/ 13 1011.1R
PORT WASHINGTON  0930   59      50/  6/  8 1011.9R
ATWATER BUOY     0907   61 60   20/  8/ 10 1011.1    1
MILWAUKEE LAKESH 0950   63      40/  6/  7   N/A
S MID LAKE BUOY  0950   64 64  330/ 10/ 10 1010.4R   1/ 4
KENOSHA   LAKESH 1000   66     270/  6/  8 1010.5
$$

TC  - TEMPERATURE IN CELSIUS
VSB - VISIBILITY IN STATUTE MILES
WCI - WIND CHILL INDEX
HX  - HEAT INDEX





USA.gov is the U.S. government's official web portal to all federal, state and local government web resources and services.